Regional Weather Roundup
Issued by NWS

Home | Current Version | Previous Version | Text Only | Print | Product List | Glossary Off
Versions: 1 2 3 4 5 6 7 8 9 10 11 12 13 14 15 16 17 18 19 20 21 22 23 24 25 26 27

000
ASUS45 KCYS 221310
RWRWY

WYOMING REGIONAL WEATHER ROUNDUP
NATIONAL WEATHER SERVICE CHEYENNE WY
700 AM MDT SAT APR 22 2017

NOTE:  "FAIR" INDICATES FEW OR NO CLOUDS BELOW 12,000 FEET
WITH NO SIGNIFICANT WEATHER AND/OR OBSTRUCTIONS TO VISIBILITY.

WYZ001-221400-
YELLOWSTONE NATIONAL PARK

CITY           SKY/WX    TMP DP  RH WIND       PRES   REMARKS
LK YELLOWSTONE   N/A     21  20  96 CALM      30.28F
W YELLOWSTONE  NOT AVBL

$$
WYZ002>013-054>058-071-098>099-221400-
NORTHERN WYOMING

CITY           SKY/WX    TMP DP  RH WIND       PRES   REMARKS
JACKSON        CLEAR     25  23  93 CALM      30.29R
CODY           CLOUDY    34  33  96 NE3       30.28R
GREYBULL       CLOUDY    39  35  86 CALM      30.26R
WORLAND        CLOUDY    40  38  93 CALM      30.27R
SHERIDAN       CLOUDY    40  38  93 W3        30.26R
BUFFALO        CLOUDY    39  36  89 NW7       30.26R WCI  34
GILLETTE       CLOUDY    41  40  96 N3        30.25R
HULETT         FAIR      37  36  93 CALM      30.27R
NEWCASTLE      FAIR      37  36  93 CALM      30.27R

$$
WYZ014>020-022>026-101>103-221400-
CENTRAL WYOMING

CITY           SKY/WX    TMP DP  RH WIND       PRES   REMARKS
BIG PINEY      FAIR      21  18  88 N8        30.28R WCI  11
PINEDALE       CLOUDY    28  27  93 CALM      30.29R
DUBOIS         FAIR      25  19  80 W9        30.24S WCI  15
LANDER         CLOUDY    36  35  96 CALM      30.24R
RIVERTON       CLOUDY    37  35  92 CALM      30.26R
CASPER         CLOUDY    37  36  96 W9        30.24R FOG     WCI  30
DOUGLAS        FOG       35  34  96 CALM      30.25R VSB<1/4

$$
WYZ021-027>030-104>119-221400-
SOUTHERN WYOMING

CITY           SKY/WX    TMP DP  RH WIND       PRES   REMARKS
EVANSTON       FAIR      27  21  78 E3        30.26S
KEMMERER         N/A     23  21  93 N9        30.26S WCI  13
FORT BRIDGER   FAIR      28  23  82 W7        30.30R WCI  21
ROCK SPRINGS   FAIR      29  22  75 S6        30.28R WCI  23
DIXON            N/A     30  28  92 NE3       30.32R
RAWLINS        CLOUDY    32  28  85 CALM      30.27R
SARATOGA       CLOUDY    30  30 100 S6        30.28R WCI  24
LARAMIE        CLOUDY    28  25  88 CALM      30.25R
CHEYENNE       CLOUDY    33  32  96 SW8       30.26R WCI  26
TORRINGTON     MOCLDY    38  38 100 SE7       30.26R WCI  33
PINE BLUFFS    CLOUDY    36  36 100 SW8       30.29R WCI  29

$$




USA.gov is the U.S. government's official web portal to all federal, state and local government web resources and services.